Showing default

ZY-1 02D, 44528

Orbit data source: Space-Track

ZY-1 02D, 44528 is a payload satellite owned by CRESDA (CN) in SSO that was launched on Thu, 12 Sep 2019 UTC via a CHANG ZHENG 4B launch vehicle from the Taiyaun Space Center, China (TSC). Payload-class satellites include a variety of spacecraft equipped with specific instruments for various scientific and technological missions. These include communications satellites like Starlink; space stations such as the ISS; scientific satellites like the Hubble; Earth observation satellites from companies like Planet Labs, Umbra, and HawkEye 360; GPS; miniature CubeSats for education and research; and military/defense satellites.

Loading next visibility...
Identifier
44528, 2019-059A
Orbit
SSO
Country
Flag of CNCN / PRC
Related business
Manufacturer
CAST
Mission
Operational Civil Imaging
Bus & Motor
ZY, AOCS 20N
Mass
1,840 kg wet, ~1,700 kg dry
Launch date (UTC)
2019-09-12 (7 years ago)
Launch vehicle
CHANG ZHENG 4B
Launch site
Taiyaun Space Center, China (TSC)
Object type
Payload
Rocket body
Debris
Shape & HBR
Box + 1 Pan, Unknown HBR
Radar Cross Section
9.469 m², Large (>1 m²)

Expand to show TLE details & history
Last TLE update: 7 hours ago

TLE from 7 hours ago
0 ZY-1 02D
1 44528U 19059A   26095.29791890  .00000279  00000-0  11152-3 0  9995
2 44528  98.3253 159.3422 0001534  33.8203 326.3081 14.35462274343880
Epoch: 2026-04-05T07:09Z
TLE epoch observation values (Epoch: 2026-04-05T07:09:00.192Z)
Latitude
-0.00003°
Longitude
-141.51395°
Altitude
775.565 km
Speed
7.467 km/s
True Right ascension
10h 37m 22s
True Declination
0° 00' 00"
Sunlit
Object was in full shadow at epoch
Visualization orbit readout
Latitude
Unknown
Longitude
Unknown
Altitude
Unknown
Speed
Unknown
Apparent Right ascension
Unknown
Apparent Declination
Unknown
Sunlit
N/A
Visualization observer readout
Local Sidereal Time
20:31:53
Azimuth
Unknown
Elevation
Unknown
Doppler factor
Unknown
Orbital elements
Apogee altitude
771.747 km
Perigee altitude
769.554 km
Semi-major axis
7,148.787 km
Eccentricity
0.00015
Inclination
98.3253°
RAAN
159.3422°
Arg. of periapsis
33.8203°
True anomaly
326.29835°
Mean anomaly
326.3081°
Eccentric anomaly
326.30322°
Mean motion
3.59083 °/min
Orbital period
100.26 mins
BSTAR
0.00011152
Loading maneuver chart data...
Computing Atmospheric mass density...
Loading historical data...
Loading historical data...
Loading historical data...
Loading historical data...
Loading historical data...
Loading historical data...
Loading historical data...
Other satellites on launch #59 in the year 2019 (2019-09-12 UTC)

Documentation

Showing up to 5 results
|